TimePST,TemperatureF,Dew PointF,Humidity,Sea Level PressureIn,VisibilityMPH,Wind Direction,Wind SpeedMPH,Gust SpeedMPH,PrecipitationIn,Events,Conditions,WindDirDegrees,DateUTC
12:53 AM,37.9,28.9,70,30.33,10.0,Calm,Calm,-,N/A,,Clear,0,2013-02-26 08:53:00
1:53 AM,37.0,27.0,67,30.33,10.0,West,6.9,-,N/A,,Clear,260,2013-02-26 09:53:00
2:53 AM,39.0,28.9,67,30.33,10.0,WNW,13.8,-,N/A,,Clear,290,2013-02-26 10:53:00
3:53 AM,39.9,30.0,68,30.34,10.0,West,10.4,-,N/A,,Clear,270,2013-02-26 11:53:00
4:53 AM,39.0,30.9,73,30.35,10.0,WNW,10.4,-,N/A,,Clear,300,2013-02-26 12:53:00
5:53 AM,39.0,30.0,70,30.36,10.0,WNW,3.5,-,N/A,,Mostly Cloudy,300,2013-02-26 13:53:00
6:53 AM,37.0,30.0,76,30.37,10.0,SSE,3.5,-,N/A,,Overcast,160,2013-02-26 14:53:00
7:53 AM,37.9,30.0,73,30.38,10.0,SE,5.8,-,N/A,,Mostly Cloudy,130,2013-02-26 15:53:00
8:53 AM,42.1,30.9,65,30.39,10.0,East,3.5,-,N/A,,Scattered Clouds,100,2013-02-26 16:53:00
9:53 AM,44.1,30.0,58,30.38,10.0,SSW,3.5,-,N/A,,Clear,210,2013-02-26 17:53:00
10:53 AM,46.0,30.0,54,30.36,10.0,Calm,Calm,-,N/A,,Clear,0,2013-02-26 18:53:00
11:53 AM,48.9,30.9,50,30.34,10.0,Calm,Calm,-,N/A,,Clear,0,2013-02-26 19:53:00
12:53 PM,48.9,28.9,46,30.32,10.0,Calm,Calm,-,N/A,,Clear,0,2013-02-26 20:53:00
1:53 PM,50.0,28.9,44,30.29,10.0,NW,3.5,-,N/A,,Clear,320,2013-02-26 21:53:00
2:53 PM,50.0,30.9,48,30.28,10.0,NW,10.4,-,N/A,,Clear,310,2013-02-26 22:53:00
3:53 PM,48.9,32.0,52,30.27,10.0,NW,5.8,-,N/A,,Clear,320,2013-02-26 23:53:00
4:53 PM,46.9,33.1,59,30.26,10.0,NW,11.5,-,N/A,,Clear,320,2013-02-27 00:53:00
5:53 PM,46.0,33.1,61,30.26,10.0,WNW,6.9,-,N/A,,Clear,290,2013-02-27 01:53:00
6:53 PM,44.1,33.1,65,30.27,10.0,NW,5.8,-,N/A,,Clear,310,2013-02-27 02:53:00
7:53 PM,44.1,33.1,65,30.26,10.0,NNW,6.9,-,N/A,,Overcast,340,2013-02-27 03:53:00
8:53 PM,44.1,33.1,65,30.26,10.0,NNW,9.2,-,N/A,,Mostly Cloudy,330,2013-02-27 04:53:00
9:53 PM,43.0,34.0,71,30.28,10.0,WNW,5.8,-,N/A,,Overcast,300,2013-02-27 05:53:00
10:53 PM,42.1,34.0,73,30.26,10.0,Calm,Calm,-,N/A,,Mostly Cloudy,0,2013-02-27 06:53:00